TimeMDT,TemperatureF,Dew PointF,Humidity,Sea Level PressureIn,VisibilityMPH,Wind Direction,Wind SpeedMPH,Gust SpeedMPH,PrecipitationIn,Events,Conditions,WindDirDegrees,DateUTC
12:53 AM,77.0,43.0,30,29.83,10.0,South,9.2,-,N/A,,Clear,170,2013-08-26 06:53:00
1:53 AM,77.0,42.1,29,29.83,10.0,South,3.5,-,N/A,,Clear,190,2013-08-26 07:53:00
2:53 AM,69.1,48.0,47,29.84,10.0,North,5.8,-,N/A,,Clear,360,2013-08-26 08:53:00
3:53 AM,70.0,42.1,36,29.84,10.0,ESE,6.9,-,N/A,,Clear,120,2013-08-26 09:53:00
4:53 AM,70.0,43.0,38,29.85,10.0,SE,9.2,-,N/A,,Clear,140,2013-08-26 10:53:00
5:53 AM,66.0,46.9,50,29.88,10.0,Calm,Calm,-,N/A,,Clear,0,2013-08-26 11:53:00
6:53 AM,66.9,45.0,45,29.91,10.0,SSE,5.8,-,N/A,,Clear,150,2013-08-26 12:53:00
7:53 AM,66.9,50.0,54,29.93,10.0,Calm,Calm,-,N/A,,Clear,0,2013-08-26 13:53:00
8:53 AM,73.0,52.0,48,29.93,10.0,Calm,Calm,-,N/A,,Clear,0,2013-08-26 14:53:00
9:53 AM,75.9,45.0,33,29.94,10.0,ENE,3.5,-,N/A,,Clear,60,2013-08-26 15:53:00
10:53 AM,81.0,46.0,29,29.94,10.0,Calm,Calm,-,N/A,,Clear,0,2013-08-26 16:53:00
11:53 AM,82.9,44.1,25,29.93,10.0,ENE,3.5,-,N/A,,Clear,70,2013-08-26 17:53:00
12:53 PM,87.1,45.0,23,29.91,10.0,Variable,5.8,-,N/A,,Clear,0,2013-08-26 18:53:00
1:53 PM,88.0,43.0,21,29.89,10.0,ENE,4.6,-,N/A,,Clear,60,2013-08-26 19:53:00
2:53 PM,90.0,41.0,18,29.89,10.0,Variable,3.5,-,N/A,,Clear,0,2013-08-26 20:53:00
3:53 PM,90.0,37.9,16,29.87,10.0,North,3.5,-,N/A,,Clear,10,2013-08-26 21:53:00
4:53 PM,91.0,36.0,14,29.84,10.0,NNE,4.6,-,N/A,,Clear,20,2013-08-26 22:53:00
5:53 PM,89.1,39.9,18,29.85,10.0,NNE,3.5,-,N/A,,Clear,30,2013-08-26 23:53:00
6:53 PM,87.1,41.0,20,29.85,10.0,Calm,Calm,-,N/A,,Partly Cloudy,0,2013-08-27 00:53:00
7:53 PM,84.0,45.0,25,29.87,10.0,South,9.2,-,N/A,,Mostly Cloudy,190,2013-08-27 01:53:00
8:53 PM,79.0,48.9,35,29.91,10.0,NW,4.6,-,N/A,,Overcast,310,2013-08-27 02:53:00
9:53 PM,75.9,51.1,42,29.91,10.0,NW,10.4,-,N/A,,Overcast,320,2013-08-27 03:53:00
10:53 PM,75.9,48.9,38,29.91,10.0,NNW,4.6,-,N/A,,Overcast,330,2013-08-27 04:53:00
11:53 PM,73.9,50.0,43,29.92,10.0,Calm,Calm,-,N/A,,Overcast,0,2013-08-27 05:53:00